Location: Ripley
(48.3812°N, 115.4473°W)
Time: 13:02:35
(UTC+00:00)

deb Agena D - Visible Passes

Search period start: 08 December 2022 00:00
Search period end: 18 December 2022 00:00
Orbit: 830 x 861 km, 99.6° (Epoch: 07 December)

Date Brightness Start Highest point End Pass type
(mag) Time Alt. Az. Time Alt. Az. Time Alt. Az.
08 Dec ? 01:57:56 31° NE 02:00:31 57° ESE 02:05:58 10° S visible
08 Dec ? 03:39:50 26° NW 03:40:41 27° WNW 03:45:16 10° WSW visible
08 Dec ? 11:45:13 10° ESE 11:49:47 28° ENE 11:53:05 16° NNE visible
08 Dec ? 13:24:38 10° S 13:29:59 54° WSW 13:34:58 12° NNW visible
09 Dec ? 01:44:35 27° NE 01:47:14 44° E 01:52:31 10° S visible
09 Dec ? 03:26:30 31° NW 03:27:36 34° WNW 03:32:31 10° SW visible
09 Dec ? 11:32:32 10° ESE 11:36:43 23° ENE 11:39:35 15° NNE visible
09 Dec ? 13:11:16 10° S 13:16:43 69° WSW 13:21:29 14° NNW visible
10 Dec ? 01:31:15 23° NE 01:33:55 35° E 01:38:57 10° SSE visible
10 Dec ? 03:13:09 36° NNW 03:14:29 42° WNW 03:19:40 10° SW visible
10 Dec ? 11:20:00 10° E 11:23:40 19° NE 11:26:06 14° NNE visible
10 Dec ? 12:57:59 10° SSE 13:03:28 87° WSW 13:07:59 16° NNW visible
10 Dec ? 14:41:57 10° WSW 14:44:47 14° W 14:47:39 10° NW visible
11 Dec ? 01:17:53 19° NE 01:20:35 27° E 01:25:15 10° SSE visible
11 Dec ? 02:59:47 40° NNW 03:01:20 52° WNW 03:06:42 10° SW visible
11 Dec ? 04:41:41 10° WNW 04:41:41 10° WNW 04:42:05 10° WNW visible
11 Dec ? 11:07:37 10° E 11:10:39 15° NE 11:12:37 13° NNE visible
11 Dec ? 12:44:48 10° SSE 12:50:15 75° ENE 12:54:30 18° NNW visible
11 Dec ? 14:27:37 10° SW 14:31:21 18° W 14:35:08 10° NW visible
12 Dec ? 01:04:31 16° NE 01:07:12 22° E 01:11:21 10° SE visible
12 Dec ? 02:46:25 43° N 02:48:10 66° WNW 02:53:39 10° SSW visible
12 Dec ? 04:28:19 13° WNW 04:28:19 13° WNW 04:30:18 10° WNW visible
12 Dec ? 10:55:31 10° ENE 10:57:40 12° NE 10:59:08 11° NNE visible
12 Dec ? 12:31:41 10° SE 12:37:04 59° ENE 12:41:02 19° N visible
12 Dec ? 14:13:37 10° SW 14:17:57 24° W 14:22:21 10° NW visible
13 Dec ? 00:51:08 12° ENE 00:53:46 17° E 00:57:15 10° SE visible
13 Dec ? 02:33:02 43° N 02:34:57 83° WNW 02:40:30 10° SSW visible
13 Dec ? 04:14:56 17° NW 04:14:56 17° NW 04:18:03 10° W visible
13 Dec ? 12:18:39 10° SE 12:23:53 47° ENE 12:27:32 19° N visible
13 Dec ? 13:59:48 10° SSW 14:04:34 30° W 14:09:25 10° NW visible
14 Dec ? 00:37:55 10° ENE 00:40:19 13° E 00:42:43 10° ESE visible
14 Dec ? 02:19:38 41° NNE 02:21:43 79° ESE 02:27:15 10° SSW visible
14 Dec ? 04:01:32 21° NW 04:01:36 21° NW 04:05:34 10° W visible
14 Dec ? 12:05:43 10° SE 12:10:44 38° ENE 12:14:03 20° N visible
14 Dec ? 13:46:08 10° SSW 13:51:13 38° W 13:55:57 12° NNW visible
15 Dec ? 02:06:14 36° NE 02:08:27 62° ESE 02:13:55 10° S visible
15 Dec ? 03:48:08 25° NW 03:48:31 25° WNW 03:52:57 10° WSW visible
15 Dec ? 11:52:53 10° ESE 11:57:36 30° ENE 12:00:34 19° NNE visible
15 Dec ? 13:32:34 10° S 13:37:52 49° W 13:42:28 14° NNW visible
16 Dec ? 01:52:49 31° NE 01:55:08 49° E 02:00:28 10° S visible
16 Dec ? 03:34:43 30° NW 03:35:25 31° WNW 03:40:12 10° WSW visible
16 Dec ? 11:40:07 10° ESE 11:44:29 25° ENE 11:47:05 18° NNE visible
16 Dec ? 13:19:08 10° S 13:24:34 63° WSW 13:28:58 16° NNW visible
17 Dec ? 01:39:24 26° NE 01:41:47 38° E 01:46:54 10° SSE visible
17 Dec ? 03:21:17 35° NW 03:22:16 38° WNW 03:27:20 10° SW visible
17 Dec ? 11:27:29 10° E 11:31:24 20° NE 11:33:36 16° NNE visible
17 Dec ? 13:05:46 10° SSE 13:11:17 80° WSW 13:15:29 18° NNW visible
17 Dec ? 14:50:16 10° WSW 14:52:40 13° W 14:55:05 10° WNW visible
